#timestamp,LO_Frequency,Hit,StdDev 
1515232815.1,286047000.6,N
1515232816.0,286047000.6,N
1515232835.8,286046998.5,N
1515232855.7,286046999.0,N
1515232875.5,286046999.1,N
1515232895.3,286046999.4,N
1515232915.2,286046999.0,N
1515232935.0,286046999.3,N
1515232935.9,286046999.3,N
1515232955.8,286046999.3,N
1515232975.6,286046999.0,N
1515232995.4,286046998.2,N
1515233015.3,286046998.5,N
1515233035.1,286046999.0,N
1515233055.8,286046998.8,N
1515233075.7,286046998.3,N
1515233095.5,286047001.1,N
1515233115.4,286047000.3,N
1515233135.2,286047000.7,N
1515233155.0,286046998.1,N
1515233155.9,286046998.1,N
1515233175.8,286046998.5,N
1515233195.6,286047000.4,N
1515233215.4,286047001.2,N
1515233235.3,286047000.6,N
1515233255.1,286047000.6,N
1515233275.9,286046998.6,N
1515233295.7,286046998.3,N
1515233315.5,286046999.2,N
1515233335.4,286046997.4,N
1515233355.2,286046999.0,N
1515233375.0,286046998.2,N
1515233376.0,286046998.2,N
1515233395.8,286046997.7,N
1515233415.6,286046997.4,N
1515233435.5,286046999.1,N
1515233455.3,286046998.6,N
1515233475.1,286046998.8,N
1515233495.9,286046999.3,N
1515233515.7,286046998.9,N
1515233535.6,286046999.3,N
1515233555.4,286046999.2,N
1515233575.2,286046998.8,N
1515233595.1,286047000.5,N
1515233596.0,286047000.5,N
1515233615.8,286047001.0,N
1515233635.6,286046999.2,N
1515233655.5,286046996.5,Y
1515233675.3,286046998.1,P
1515233695.2,286047001.2,N
1515233715.9,286047001.0,N
1515233735.7,286047002.8,N
1515233755.6,286047002.6,N
1515233775.4,286046999.7,N
1515233795.3,286046999.8,N
1515233815.1,286047000.4,N
1515233816.0,286047000.4,N
1515233835.8,286046999.9,N
1515233855.7,286046999.7,N
1515233875.5,286046999.9,N
1515233895.3,286047001.5,N
1515233915.2,286047006.0,Y
1515233935.0,286047004.3,P
1515233935.9,286047004.3,N
1515233955.8,286046998.5,N
1515233975.6,286046998.0,N
1515233995.4,286046994.9,N
1515234015.3,286046996.2,N
1515234035.1,286046995.2,N
1515234055.9,286046993.5,N
1515234075.7,286046993.0,N
1515234095.5,286046990.3,N
1515234115.4,286046989.2,N
1515234135.2,286046989.3,N
1515234155.0,286046987.0,N
1515234155.9,286046987.0,N
1515234175.8,286046989.9,N
1515234195.6,286046986.9,N
1515234215.5,286046987.5,N
1515234235.3,286046985.3,N
1515234255.1,286046986.2,N
1515234275.9,286046985.6,N
1515234295.7,286046986.6,N
1515234315.5,286046985.9,N
1515234335.4,286046986.2,N
1515234355.2,286046985.7,N
1515234375.1,286046984.2,N
1515234376.0,286046984.2,N
1515234395.8,286046984.1,N
1515234415.6,286046985.5,N
1515234435.5,286046985.7,N
1515234455.3,286046987.8,N
1515234475.1,286046989.9,N
1515234495.9,286046987.4,N
1515234515.7,286046986.9,Y
1515234535.6,286047000.3,P
1515234555.4,286047000.2,N
1515234575.2,286046999.8,N
1515234595.1,286047001.7,N
1515234596.0,286047001.7,N
1515234615.8,286047004.0,N
1515234635.7,286047003.8,N
1515234655.5,286047004.2,N
1515234675.3,286047004.1,N
1515234695.2,286047001.5,N
1515234715.0,286047002.1,N
1515234715.9,286047002.1,N
1515234735.7,286046998.8,N
1515234755.6,286046998.7,N
1515234775.4,286046999.3,N
1515234795.3,286046999.6,N
1515234815.1,286046998.8,N
1515234816.0,286046998.8,N
1515234835.8,286046998.2,N
1515234855.7,286046998.6,N
1515234875.5,286047000.2,N
1515234895.4,286047002.7,N
1515234915.2,286047004.3,N
1515234935.0,286047003.3,N
1515234935.9,286047003.3,N
1515234955.8,286047005.1,N
1515234975.6,286047005.1,N
1515234995.4,286047004.8,N
1515235015.3,286047007.1,N
1515235035.1,286047005.0,N
1515235055.9,286047005.0,N
1515235075.7,286047005.5,N
1515235095.5,286047005.3,N
1515235115.4,286047006.0,N
1515235135.2,286047007.3,N
1515235155.1,286047007.2,N
1515235156.0,286047007.2,N
1515235175.8,286047005.3,N
1515235195.6,286047005.4,N
1515235215.5,286047007.0,N
1515235235.3,286047004.9,N
1515235255.1,286047004.8,N
1515235275.9,286047005.0,N
1515235295.7,286047006.3,N
1515235315.6,286047007.3,N
1515235335.4,286047007.4,N
1515235355.2,286047009.0,Y
1515235375.1,286047001.4,P
1515235376.0,286047001.4,N
1515235395.8,286047004.3,P
1515235415.7,286047001.5,N
1515235435.5,286047002.3,N
1515235455.3,286047000.7,N
1515235475.2,286046999.7,N
1515235495.9,286047002.3,N
1515235515.7,286047001.9,N
1515235535.6,286047001.9,N
1515235555.4,286047001.6,N
1515235575.3,286047002.7,N
1515235595.1,286047000.8,N
1515235596.0,286047000.8,N
1515235615.8,286047000.1,N
1515235635.7,286047000.6,N
1515235655.5,286047001.1,N
1515235675.3,286047000.8,N
1515235695.2,286046998.4,N
1515235715.0,286046999.3,N
1515235715.9,286046999.3,N
1515235735.8,286046999.2,N
1515235755.6,286046999.0,N
1515235775.4,286046999.4,N
1515235795.3,286046998.2,N
1515235815.1,286046998.3,N
1515235835.8,286046998.4,N
1515235855.7,286047001.1,N
1515235875.5,286047000.1,N
1515235895.4,286047000.3,N
1515235915.2,286047002.2,N
1515235935.0,286047002.2,N
1515235935.9,286047002.2,N
1515235955.8,286046999.7,N
1515235975.6,286047002.4,N
1515235995.5,286046999.7,N
1515236015.3,286047002.1,N
1515236035.1,286047002.4,N
1515236055.9,286047002.1,N
1515236075.7,286047002.2,N
1515236095.5,286047000.9,N
1515236115.4,286047000.3,N
1515236135.2,286046999.7,N
1515236155.1,286047000.8,N
1515236156.0,286047000.8,N
1515236175.8,286046999.5,N
1515236195.6,286046998.8,N
1515236215.5,286046998.2,N
1515236235.3,286047001.2,N
1515236255.1,286046998.1,N
1515236275.9,286046998.5,N
1515236295.7,286046998.7,N
1515236315.6,286046998.3,N
1515236335.4,286046998.3,N
1515236355.2,286046999.5,N
1515236375.1,286046998.5,N
1515236376.0,286046998.5,N
1515236395.8,286046996.9,N
